When you browse on this site, cookies collect data to enhance your experience and personalize the content and advertising you see.
Visit our Privacy Policy to learn more. By continuing to use the site, you agree to this use of cookies and data.
EN

Hourly Weather Kandhla

Today, 12 August, Wednesday

Time Temperature Precipitation Wind Pressure Humidity
00:00 +31°C° 0.2 mm 1 mps 728 mmHg 82%
01:00 +31°C° 0.2 mm 1 mps 728 mmHg 82%
02:00 +28°C° 0.2 mm 0 mps 728 mmHg 82%
03:00 +30°C° 0 mm 1 mps 728 mmHg 83%
04:00 +30°C° 0 mm 1 mps 728 mmHg 85%
05:00 +30°C° 0 mm 1 mps 727 mmHg 87%
06:00 +30°C° 0.1 mm 1 mps 728 mmHg 84%
07:00 +31°C° 0.1 mm 2 mps 728 mmHg 81%
08:00 +32°C° 0.1 mm 2 mps 728 mmHg 77%
09:00 +35°C° 0.3 mm 2 mps 728 mmHg 71%
10:00 +36°C° 0.3 mm 3 mps 728 mmHg 65%
11:00 +35°C° 0 mm 1 mps 729 mmHg 62%
12:00 +35°C° 1.1 mm 2 mps 728 mmHg 67%
13:00 +34°C° 1.1 mm 3 mps 728 mmHg 73%
14:00 +33°C° 1.1 mm 4 mps 727 mmHg 78%
15:00 +32°C° 0.2 mm 4 mps 727 mmHg 80%
16:00 +30°C° 0.2 mm 3 mps 727 mmHg 83%
17:00 +29°C° 0 mm 2 mps 727 mmHg 84%
18:00 +28°C° 0.2 mm 2 mps 727 mmHg 85%
19:00 +28°C° 0.2 mm 2 mps 728 mmHg 86%
20:00 +27°C° 0.2 mm 2 mps 728 mmHg 86%
21:00 +27°C° 0.7 mm 2 mps 728 mmHg 87%
22:00 +27°C° 0.7 mm 1 mps 728 mmHg 88%
23:00 +27°C° 0.7 mm 1 mps 729 mmHg 88%

Tomorrow, 13 August, Thursday

Time Temperature Precipitation Wind Pressure Humidity
00:00 +27°C° 0.4 mm 1 mps 728 mmHg 89%
01:00 +27°C° 0.4 mm 2 mps 728 mmHg 89%
02:00 +27°C° 0.4 mm 2 mps 728 mmHg 89%
03:00 +27°C° 0.2 mm 2 mps 728 mmHg 91%
04:00 +27°C° 0.2 mm 2 mps 727 mmHg 93%
05:00 +27°C° 0.2 mm 1 mps 727 mmHg 95%
06:00 +28°C° 0.1 mm 2 mps 728 mmHg 91%
07:00 +29°C° 0.1 mm 2 mps 728 mmHg 87%
08:00 +31°C° 0.1 mm 3 mps 729 mmHg 83%
09:00 +33°C° 0.5 mm 3 mps 729 mmHg 77%
10:00 +34°C° 0.5 mm 3 mps 728 mmHg 71%
11:00 +36°C° 0.5 mm 3 mps 728 mmHg 65%
12:00 +36°C° 1.4 mm 2 mps 728 mmHg 63%
13:00 +36°C° 1.4 mm 2 mps 727 mmHg 62%
14:00 +37°C° 1.4 mm 2 mps 727 mmHg 60%
15:00 +36°C° 0.2 mm 3 mps 726 mmHg 64%
16:00 +35°C° 0.2 mm 4 mps 726 mmHg 67%
17:00 +34°C° 0.2 mm 4 mps 725 mmHg 71%
18:00 +33°C° 0 mm 4 mps 726 mmHg 76%
19:00 +31°C° 0 mm 3 mps 726 mmHg 81%
20:00 +30°C° 0 mm 3 mps 726 mmHg 86%
21:00 +30°C° 0 mm 3 mps 727 mmHg 87%
22:00 +29°C° 0 mm 3 mps 727 mmHg 88%
23:00 +29°C° 0 mm 3 mps 727 mmHg 89%

Day after tomorrow, 14 August, Friday

Time Temperature Precipitation Wind Pressure Humidity
00:00 +29°C° 0 mm 3 mps 727 mmHg 90%
01:00 +29°C° 0 mm 3 mps 727 mmHg 91%
02:00 +28°C° 0 mm 3 mps 727 mmHg 92%
03:00 +28°C° 0 mm 3 mps 726 mmHg 92%
04:00 +28°C° 0 mm 3 mps 726 mmHg 91%
05:00 +28°C° 0 mm 3 mps 726 mmHg 91%
06:00 +29°C° 0 mm 3 mps 727 mmHg 87%
07:00 +30°C° 0 mm 4 mps 727 mmHg 84%
08:00 +32°C° 0 mm 4 mps 727 mmHg 81%
09:00 +33°C° 0.1 mm 4 mps 727 mmHg 75%
10:00 +35°C° 0.1 mm 4 mps 727 mmHg 69%
11:00 +36°C° 0.1 mm 4 mps 727 mmHg 63%
12:00 +36°C° 2 mm 4 mps 727 mmHg 64%
13:00 +36°C° 2 mm 4 mps 726 mmHg 65%
14:00 +36°C° 2 mm 4 mps 726 mmHg 66%
15:00 +35°C° 2.7 mm 4 mps 726 mmHg 69%
16:00 +35°C° 2.7 mm 3 mps 725 mmHg 72%
17:00 +34°C° 2.7 mm 3 mps 725 mmHg 76%
18:00 +32°C° 0.2 mm 2 mps 725 mmHg 78%
19:00 +31°C° 0.2 mm 2 mps 725 mmHg 81%
20:00 +30°C° 0.2 mm 2 mps 725 mmHg 83%
21:00 +30°C° 0 mm 2 mps 726 mmHg 84%
22:00 +30°C° 0 mm 2 mps 726 mmHg 84%
23:00 +30°C° 0 mm 2 mps 726 mmHg 85%

15 August, Saturday

Time Temperature Precipitation Wind Pressure Humidity
00:00 +30°C° 0.2 mm 2 mps 726 mmHg 86%
01:00 +29°C° 0.2 mm 2 mps 726 mmHg 87%
02:00 +29°C° 0.2 mm 2 mps 725 mmHg 89%
03:00 +29°C° 0.8 mm 2 mps 725 mmHg 90%
04:00 +29°C° 0.8 mm 2 mps 725 mmHg 91%
05:00 +28°C° 0.8 mm 2 mps 725 mmHg 92%
06:00 +29°C° 0.2 mm 2 mps 725 mmHg 91%
07:00 +29°C° 0.2 mm 3 mps 726 mmHg 89%
08:00 +30°C° 0.2 mm 3 mps 726 mmHg 87%
09:00 +33°C° 0 mm 3 mps 726 mmHg 79%
10:00 +34°C° 0 mm 3 mps 726 mmHg 71%
11:00 +36°C° 0 mm 3 mps 726 mmHg 63%
12:00 +37°C° 0.3 mm 3 mps 726 mmHg 60%
13:00 +37°C° 0.3 mm 2 mps 725 mmHg 58%
14:00 +38°C° 0.3 mm 2 mps 725 mmHg 55%
15:00 +38°C° 0.3 mm 2 mps 725 mmHg 58%
16:00 +37°C° 0.3 mm 2 mps 725 mmHg 60%
17:00 +37°C° 0.3 mm 2 mps 724 mmHg 63%
18:00 +35°C° 0.4 mm 2 mps 725 mmHg 68%
19:00 +34°C° 0.4 mm 2 mps 725 mmHg 73%
20:00 +31°C° 0.4 mm 3 mps 725 mmHg 78%
21:00 +31°C° 0 mm 3 mps 726 mmHg 79%
22:00 +31°C° 0 mm 3 mps 726 mmHg 81%
23:00 +30°C° 0 mm 3 mps 727 mmHg 82%

16 August, Sunday

Time Temperature Precipitation Wind Pressure Humidity
00:00 +30°C° 0.1 mm 3 mps 726 mmHg 84%
01:00 +29°C° 0.1 mm 2 mps 726 mmHg 86%
02:00 +29°C° 0.1 mm 2 mps 726 mmHg 87%
03:00 +29°C° 1.2 mm 3 mps 726 mmHg 89%
04:00 +28°C° 1.2 mm 3 mps 726 mmHg 91%
05:00 +28°C° 1.2 mm 3 mps 726 mmHg 93%
06:00 +29°C° 1.8 mm 3 mps 726 mmHg 89%
07:00 +30°C° 1.8 mm 4 mps 727 mmHg 85%
08:00 +32°C° 1.8 mm 5 mps 727 mmHg 81%
09:00 +33°C° 1.5 mm 4 mps 727 mmHg 76%
10:00 +35°C° 1.5 mm 3 mps 727 mmHg 71%
11:00 +36°C° 1.5 mm 2 mps 727 mmHg 65%
12:00 +36°C° 1.4 mm 2 mps 727 mmHg 63%
13:00 +37°C° 1.4 mm 2 mps 727 mmHg 61%
14:00 +36°C° 1.4 mm 1 mps 726 mmHg 58%
15:00 +36°C° 0 mm 1 mps 726 mmHg 61%
16:00 +36°C° 0 mm 1 mps 725 mmHg 63%
17:00 +37°C° 0 mm 2 mps 725 mmHg 65%
18:00 +35°C° 0.1 mm 2 mps 725 mmHg 69%
19:00 +34°C° 0.1 mm 2 mps 726 mmHg 74%
20:00 +33°C° 0.1 mm 3 mps 726 mmHg 78%
21:00 +31°C° 0.1 mm 3 mps 726 mmHg 79%
22:00 +31°C° 0.1 mm 3 mps 726 mmHg 81%
23:00 +30°C° 0.1 mm 3 mps 727 mmHg 82%

17 August, Monday

Time Temperature Precipitation Wind Pressure Humidity
00:00 +30°C° 0.1 mm 3 mps 726 mmHg 83%
01:00 +30°C° 0.1 mm 3 mps 726 mmHg 84%
02:00 +30°C° 0.1 mm 3 mps 726 mmHg 85%
03:00 +29°C° 0.7 mm 2 mps 726 mmHg 87%
04:00 +29°C° 0.7 mm 2 mps 726 mmHg 90%
05:00 +28°C° 0.7 mm 1 mps 726 mmHg 92%
06:00 +29°C° 1.8 mm 2 mps 727 mmHg 89%
07:00 +30°C° 1.8 mm 3 mps 727 mmHg 87%
08:00 +32°C° 1.8 mm 4 mps 727 mmHg 85%
09:00 +33°C° 1.5 mm 4 mps 727 mmHg 80%
10:00 +34°C° 1.5 mm 4 mps 727 mmHg 75%
11:00 +35°C° 1.5 mm 4 mps 727 mmHg 71%
12:00 +36°C° 1.3 mm 3 mps 727 mmHg 68%
13:00 +36°C° 1.3 mm 3 mps 726 mmHg 66%
14:00 +37°C° 1.3 mm 2 mps 726 mmHg 64%
15:00 +36°C° 0.8 mm 2 mps 726 mmHg 69%
16:00 +35°C° 0.8 mm 3 mps 725 mmHg 73%
17:00 +34°C° 0.8 mm 3 mps 725 mmHg 78%
18:00 +33°C° 0.1 mm 3 mps 725 mmHg 80%
19:00 +31°C° 0.1 mm 3 mps 725 mmHg 83%
20:00 +30°C° 0.1 mm 3 mps 726 mmHg 85%
21:00 +30°C° 0 mm 3 mps 726 mmHg 86%
22:00 +30°C° 0 mm 3 mps 726 mmHg 87%
23:00 +30°C° 0 mm 3 mps 727 mmHg 88%
Show more